QFA2530 UNNT-UEEE

Flight info

Callsign QFA2530
Flight time 3h 22m
Altitude 37000
Route DIMID1M DIMID G828 NN A300 TOKMO B911 ENS W105 ERBOG/K0867F390 W39 GISUN W289 ABGUR ABGUR6C
Aircraft A339/H-SADE1E2E3GHIJ3J5M1P2RWXY/LB2D1

Departure

Time 2026-04-16 04:24
Airport Novosibirsk Tolmachevo Airport (UNNT)

Arrival

Time 2026-04-16 07:46
Airport Platon Oyunsky Yakutsk International Airport (UEEE)
Time Latitude Longitude Altitude Speed Heading
2026-04-16 04:24 55.17026 82.55713 3998 ft 237 kts 347°
2026-04-16 04:24 55.18651 82.55210 3999 ft 237 kts 347°
2026-04-16 04:24 55.20283 82.54726 3989 ft 239 kts 351°
2026-04-16 04:24 55.21946 82.55120 4186 ft 247 kts 20°
2026-04-16 04:25 55.23418 82.56713 4821 ft 253 kts 32°
2026-04-16 04:25 55.24919 82.58485 5066 ft 265 kts 31°
2026-04-16 04:25 55.26466 82.60261 5094 ft 266 kts 31°
2026-04-16 04:25 55.28020 82.62012 5102 ft 265 kts 30°
2026-04-16 04:26 55.29577 82.63755 5096 ft 265 kts 30°
2026-04-16 04:26 55.31174 82.65296 5171 ft 267 kts 20°
2026-04-16 04:26 55.32948 82.66222 5782 ft 265 kts
2026-04-16 04:26 55.34757 82.66881 6490 ft 267 kts
2026-04-16 04:27 55.36588 82.67597 6941 ft 270 kts 10°
2026-04-16 04:27 55.38421 82.68343 7070 ft 270 kts 10°
2026-04-16 04:27 55.40288 82.69019 7129 ft 272 kts
2026-04-16 04:27 55.42173 82.69124 7666 ft 270 kts 356°
2026-04-16 04:28 55.44023 82.69120 8452 ft 269 kts 357°
2026-04-16 04:28 55.45904 82.69148 9132 ft 272 kts 357°
2026-04-16 04:28 55.47805 82.69186 9813 ft 275 kts 357°
2026-04-16 04:28 55.49729 82.69227 10395 ft 280 kts 356°
2026-04-16 04:29 55.51748 82.69262 10574 ft 299 kts 356°
2026-04-16 04:29 55.53901 82.69297 10751 ft 317 kts 357°
2026-04-16 04:29 55.56142 82.69339 11189 ft 325 kts 357°
2026-04-16 04:29 55.58408 82.69390 11810 ft 327 kts 356°
2026-04-16 04:30 55.59922 82.69425 12192 ft 329 kts 356°
2026-04-16 04:30 55.62226 82.69475 12797 ft 332 kts 356°
2026-04-16 04:30 55.64543 82.69523 13381 ft 335 kts 356°
2026-04-16 04:30 55.67649 82.69584 14137 ft 338 kts 356°
2026-04-16 04:31 55.69244 82.69615 14485 ft 340 kts 355°
2026-04-16 04:31 55.71597 82.69660 15003 ft 343 kts 355°
2026-04-16 04:31 55.74812 82.69721 15698 ft 347 kts 355°
2026-04-16 04:31 55.76418 82.69751 16024 ft 349 kts 355°
2026-04-16 04:32 55.78858 82.69798 16549 ft 352 kts 355°
2026-04-16 04:32 55.81316 82.69846 17054 ft 355 kts 355°
2026-04-16 04:32 55.83799 82.69894 17544 ft 358 kts 355°
2026-04-16 04:32 55.86305 82.69942 18050 ft 361 kts 355°
2026-04-16 04:33 55.88830 82.69990 18538 ft 364 kts 355°
2026-04-16 04:33 55.91374 82.70039 18993 ft 367 kts 355°
2026-04-16 04:33 55.93936 82.70088 19450 ft 369 kts 355°
2026-04-16 04:33 55.96509 82.70137 19932 ft 371 kts 355°
2026-04-16 04:34 55.99100 82.70188 20396 ft 374 kts 355°
2026-04-16 04:34 56.01713 82.70405 20803 ft 382 kts
2026-04-16 04:34 56.04280 82.71838 21268 ft 394 kts 21°
2026-04-16 04:34 56.06582 82.74599 21735 ft 406 kts 38°
2026-04-16 04:35 56.08423 82.78499 22187 ft 416 kts 55°
2026-04-16 04:35 56.09627 82.83197 22619 ft 424 kts 71°
2026-04-16 04:35 56.10184 82.88418 23087 ft 429 kts 82°
2026-04-16 04:35 56.10512 82.93750 23518 ft 432 kts 82°
2026-04-16 04:36 56.10919 82.99101 23917 ft 434 kts 79°
2026-04-16 04:36 56.11453 83.04452 24299 ft 437 kts 77°
2026-04-16 04:36 56.12076 83.09792 24702 ft 438 kts 76°
2026-04-16 04:36 56.12745 83.15139 25098 ft 440 kts 75°
2026-04-16 04:37 56.13431 83.20502 25479 ft 443 kts 75°
2026-04-16 04:37 56.14122 83.25904 25854 ft 446 kts 75°
2026-04-16 04:37 56.14813 83.31340 26226 ft 448 kts 76°
2026-04-16 04:37 56.15495 83.36743 26605 ft 450 kts 76°
2026-04-16 04:38 56.16214 83.42241 26963 ft 453 kts 75°
2026-04-16 04:38 56.16957 83.47755 27339 ft 455 kts 75°
2026-04-16 04:38 56.17702 83.53282 27711 ft 457 kts 75°
2026-04-16 04:38 56.18447 83.58851 28078 ft 460 kts 75°
2026-04-16 04:39 56.19190 83.64460 28416 ft 462 kts 75°
2026-04-16 04:39 56.19931 83.70088 28749 ft 465 kts 75°
2026-04-16 04:39 56.20672 83.75757 29094 ft 467 kts 75°
2026-04-16 04:39 56.21415 83.81453 29439 ft 469 kts 75°
2026-04-16 04:40 56.22160 83.87199 29770 ft 472 kts 75°
2026-04-16 04:40 56.22895 83.92887 30089 ft 474 kts 75°
2026-04-16 04:40 56.23640 83.98673 30380 ft 476 kts 75°
2026-04-16 04:40 56.24380 84.04491 30654 ft 479 kts 75°
2026-04-16 04:41 56.25115 84.10372 30925 ft 482 kts 76°
2026-04-16 04:41 56.25848 84.16278 31196 ft 485 kts 76°
2026-04-16 04:41 56.26582 84.22219 31474 ft 487 kts 76°
2026-04-16 04:41 56.27317 84.28175 31747 ft 489 kts 76°
2026-04-16 04:42 56.28055 84.34177 31990 ft 492 kts 76°
2026-04-16 04:42 56.28794 84.40215 32261 ft 495 kts 76°
2026-04-16 04:42 56.29536 84.46294 32523 ft 497 kts 76°
2026-04-16 04:42 56.30275 84.52386 32729 ft 499 kts 76°
2026-04-16 04:43 56.31015 84.58507 32931 ft 501 kts 76°
2026-04-16 04:43 56.31754 84.64649 33111 ft 503 kts 76°
2026-04-16 04:43 56.32494 84.70824 33283 ft 505 kts 76°
2026-04-16 04:43 56.33231 84.77013 33434 ft 506 kts 76°
2026-04-16 04:44 56.33961 84.83162 33588 ft 507 kts 76°
2026-04-16 04:44 56.34696 84.89382 33769 ft 507 kts 76°
2026-04-16 04:44 56.35428 84.95611 33974 ft 507 kts 76°
2026-04-16 04:44 56.36156 85.01827 34145 ft 507 kts 76°
2026-04-16 04:45 56.36880 85.08048 34329 ft 507 kts 76°
2026-04-16 04:45 56.37623 85.14271 34464 ft 506 kts 73°
2026-04-16 04:45 56.38688 85.20312 34619 ft 503 kts 65°
2026-04-16 04:45 56.40147 85.26025 34779 ft 500 kts 58°
2026-04-16 04:46 56.41934 85.31380 34935 ft 497 kts 54°
2026-04-16 04:46 56.43784 85.36661 35092 ft 498 kts 54°
2026-04-16 04:46 56.45620 85.41970 35250 ft 498 kts 54°
2026-04-16 04:46 56.47447 85.47288 35425 ft 497 kts 54°
2026-04-16 04:47 56.49270 85.52611 35581 ft 497 kts 54°
2026-04-16 04:47 56.51067 85.57866 35736 ft 497 kts 54°
2026-04-16 04:47 56.52887 85.63198 35892 ft 497 kts 54°
2026-04-16 04:47 56.54700 85.68519 36055 ft 497 kts 54°
2026-04-16 04:48 56.56516 85.73859 36205 ft 497 kts 54°
2026-04-16 04:48 56.58328 85.79200 36366 ft 497 kts 54°
2026-04-16 04:48 56.60136 85.84543 36511 ft 497 kts 54°
2026-04-16 04:48 56.61945 85.89899 36659 ft 497 kts 54°
2026-04-16 04:49 56.63745 85.95240 36803 ft 497 kts 55°
2026-04-16 04:49 56.65548 86.00599 36947 ft 497 kts 55°
2026-04-16 04:49 56.69151 86.11322 37010 ft 495 kts 54°
2026-04-16 04:50 56.72741 86.22031 37012 ft 495 kts 55°
2026-04-16 04:50 56.76318 86.32758 37011 ft 495 kts 55°
2026-04-16 04:51 56.79884 86.43502 37012 ft 495 kts 55°
2026-04-16 04:51 56.83438 86.54260 37022 ft 494 kts 55°
2026-04-16 04:52 56.86981 86.65034 37022 ft 494 kts 55°
2026-04-16 04:52 56.90510 86.75812 36993 ft 494 kts 55°
2026-04-16 04:53 56.94031 86.86612 36998 ft 494 kts 55°
2026-04-16 04:53 56.97519 86.97363 37004 ft 494 kts 56°
2026-04-16 04:54 57.01025 87.08217 36995 ft 494 kts 56°
2026-04-16 04:54 57.04509 87.19086 36994 ft 494 kts 56°
2026-04-16 04:55 57.07986 87.29988 36996 ft 494 kts 56°
2026-04-16 04:55 57.11457 87.40914 36997 ft 494 kts 56°
2026-04-16 04:56 57.14914 87.51848 36993 ft 494 kts 56°
2026-04-16 04:56 57.18342 87.62739 36994 ft 494 kts 56°
2026-04-16 04:57 57.21786 87.73730 36990 ft 494 kts 56°
2026-04-16 04:57 57.25214 87.84723 36989 ft 494 kts 56°
2026-04-16 04:58 57.28634 87.95743 36981 ft 494 kts 56°
2026-04-16 04:58 57.32023 88.06711 36981 ft 494 kts 56°
2026-04-16 04:59 57.35421 88.17761 36975 ft 494 kts 56°
2026-04-16 04:59 57.38795 88.28850 36968 ft 494 kts 57°
2026-04-16 05:00 57.42158 88.39975 36966 ft 494 kts 57°
2026-04-16 05:00 57.45513 88.51112 36963 ft 493 kts 57°
2026-04-16 05:01 57.48851 88.62249 36955 ft 494 kts 57°
2026-04-16 05:01 57.52188 88.73432 36939 ft 494 kts 57°
2026-04-16 05:02 57.55493 88.84561 36944 ft 494 kts 57°
2026-04-16 05:02 57.58813 88.95793 36947 ft 495 kts 57°
2026-04-16 05:03 57.62124 89.07052 36944 ft 495 kts 58°
2026-04-16 05:04 57.67080 89.24004 36947 ft 496 kts 58°
2026-04-16 05:04 57.70378 89.35356 36938 ft 496 kts 58°
2026-04-16 05:05 57.73675 89.46731 36932 ft 496 kts 58°
2026-04-16 05:05 57.76961 89.58008 36923 ft 496 kts 58°
2026-04-16 05:06 57.80267 89.69408 36918 ft 496 kts 58°
2026-04-16 05:06 57.83554 89.80811 36911 ft 496 kts 58°
2026-04-16 05:07 57.86827 89.92229 36908 ft 496 kts 58°
2026-04-16 05:07 57.90094 90.03670 36916 ft 501 kts 59°
2026-04-16 05:08 57.93398 90.15302 36886 ft 511 kts 59°
2026-04-16 05:08 57.96747 90.27171 36893 ft 512 kts 59°
2026-04-16 05:09 58.00077 90.39031 36891 ft 512 kts 59°
2026-04-16 05:09 58.03398 90.50914 36883 ft 512 kts 59°
2026-04-16 05:10 58.06708 90.62820 36881 ft 512 kts 60°
2026-04-16 05:10 58.10010 90.74758 36872 ft 512 kts 60°
2026-04-16 05:11 58.13299 90.86712 36867 ft 512 kts 60°
2026-04-16 05:11 58.16556 90.98611 36863 ft 512 kts 60°
2026-04-16 05:12 58.19819 91.10594 36856 ft 512 kts 60°
2026-04-16 05:12 58.23068 91.22593 36850 ft 511 kts 60°
2026-04-16 05:13 58.26310 91.34622 36843 ft 511 kts 60°
2026-04-16 05:13 58.29540 91.46666 36834 ft 511 kts 61°
2026-04-16 05:14 58.32756 91.58731 36829 ft 511 kts 61°
2026-04-16 05:14 58.35963 91.70826 36816 ft 511 kts 61°
2026-04-16 05:15 58.39164 91.82957 36814 ft 511 kts 61°
2026-04-16 05:15 58.42345 91.95082 36811 ft 511 kts 61°
2026-04-16 05:16 58.45516 92.07233 36804 ft 511 kts 61°
2026-04-16 05:16 58.48594 92.19378 36796 ft 512 kts 64°
2026-04-16 05:17 58.51493 92.31822 36792 ft 512 kts 64°
2026-04-16 05:17 58.54390 92.44267 36791 ft 512 kts 64°
2026-04-16 05:18 58.56830 92.54707 36788 ft 512 kts 64°
2026-04-16 05:18 58.59715 92.67087 36787 ft 512 kts 64°
2026-04-16 05:19 58.62610 92.79586 36788 ft 512 kts 64°
2026-04-16 05:19 58.65491 92.92097 36785 ft 512 kts 64°
2026-04-16 05:20 58.68358 93.04623 36786 ft 512 kts 64°
2026-04-16 05:20 58.71210 93.17160 36781 ft 511 kts 64°
2026-04-16 05:21 58.74050 93.29708 36776 ft 511 kts 65°
2026-04-16 05:21 58.76858 93.42191 36778 ft 510 kts 65°
2026-04-16 05:22 58.79666 93.54752 36774 ft 510 kts 65°
2026-04-16 05:22 58.82458 93.67317 36771 ft 509 kts 65°
2026-04-16 05:23 58.85236 93.79894 36766 ft 509 kts 65°
2026-04-16 05:23 58.88002 93.92488 36761 ft 508 kts 65°
2026-04-16 05:24 58.90749 94.05075 36765 ft 508 kts 65°
2026-04-16 05:24 58.93467 94.17608 36756 ft 508 kts 66°
2026-04-16 05:25 58.96186 94.30211 36763 ft 507 kts 66°
2026-04-16 05:25 58.98892 94.42833 36743 ft 507 kts 66°
2026-04-16 05:26 59.01584 94.55465 36741 ft 507 kts 66°
2026-04-16 05:26 59.04265 94.68126 36746 ft 506 kts 66°
2026-04-16 05:27 59.06931 94.80793 36748 ft 507 kts 66°
2026-04-16 05:27 59.09573 94.93426 36756 ft 507 kts 66°
2026-04-16 05:28 59.12215 95.06136 36752 ft 507 kts 66°
2026-04-16 05:28 59.14846 95.18874 36754 ft 507 kts 67°
2026-04-16 05:29 59.17464 95.31629 36758 ft 507 kts 67°
2026-04-16 05:29 59.20069 95.44401 36760 ft 506 kts 67°
2026-04-16 05:30 59.22663 95.57197 36758 ft 506 kts 67°
2026-04-16 05:30 59.25239 95.69985 36762 ft 506 kts 67°
2026-04-16 05:31 59.27796 95.82800 36769 ft 506 kts 68°
2026-04-16 05:31 59.30339 95.95636 36777 ft 505 kts 68°
2026-04-16 05:32 59.32868 96.08483 36784 ft 505 kts 68°
2026-04-16 05:32 59.35367 96.21252 36783 ft 504 kts 68°
2026-04-16 05:33 59.37868 96.34113 36789 ft 504 kts 68°
2026-04-16 05:33 59.40351 96.46969 36793 ft 503 kts 68°
2026-04-16 05:34 59.42820 96.59836 36791 ft 503 kts 68°
2026-04-16 05:34 59.45276 96.72721 36791 ft 503 kts 69°
2026-04-16 05:35 59.47705 96.85610 36795 ft 502 kts 69°
2026-04-16 05:35 59.50117 96.98413 36798 ft 502 kts 69°
2026-04-16 05:36 59.52541 97.11340 36798 ft 502 kts 69°
2026-04-16 05:36 59.54941 97.24257 36800 ft 502 kts 69°
2026-04-16 05:37 59.57327 97.37195 36808 ft 502 kts 69°
2026-04-16 05:37 59.59698 97.50143 36811 ft 502 kts 69°
2026-04-16 05:38 59.62057 97.63113 36817 ft 501 kts 69°
2026-04-16 05:38 59.64402 97.76089 36821 ft 501 kts 70°
2026-04-16 05:39 59.66719 97.89003 36827 ft 501 kts 70°
2026-04-16 05:39 59.69038 98.02018 36829 ft 501 kts 70°
2026-04-16 05:40 59.71343 98.15041 36837 ft 501 kts 70°
2026-04-16 05:40 59.73634 98.28077 36837 ft 501 kts 70°
2026-04-16 05:41 59.75913 98.41137 36841 ft 500 kts 70°
2026-04-16 05:41 59.78175 98.54193 36845 ft 500 kts 70°
2026-04-16 05:42 59.80423 98.67260 36851 ft 500 kts 70°
2026-04-16 05:42 59.82660 98.80350 36850 ft 500 kts 71°
2026-04-16 05:43 59.84883 98.93460 36859 ft 500 kts 71°
2026-04-16 05:43 59.87080 99.06505 36865 ft 499 kts 71°
2026-04-16 05:44 59.89275 99.19638 36870 ft 499 kts 71°
2026-04-16 05:44 59.91457 99.32781 36873 ft 499 kts 71°
2026-04-16 05:45 59.93606 99.45828 36878 ft 499 kts 71°
2026-04-16 05:45 59.95769 99.59055 36881 ft 498 kts 71°
2026-04-16 05:46 59.97892 99.72130 36891 ft 498 kts 72°
2026-04-16 05:46 60.00016 99.85313 36896 ft 498 kts 72°
2026-04-16 05:47 60.02125 99.98499 36900 ft 497 kts 72°
2026-04-16 05:47 60.04217 100.11678 36897 ft 497 kts 72°
2026-04-16 05:48 60.06299 100.24891 36904 ft 497 kts 72°
2026-04-16 05:48 60.08364 100.38099 36906 ft 497 kts 72°
2026-04-16 05:49 60.10403 100.51239 36913 ft 496 kts 72°
2026-04-16 05:49 60.12438 100.64458 36915 ft 496 kts 72°
2026-04-16 05:50 60.14462 100.77703 36919 ft 496 kts 73°
2026-04-16 05:50 60.16474 100.90970 36922 ft 496 kts 73°
2026-04-16 05:51 60.18467 101.04220 36925 ft 496 kts 73°
2026-04-16 05:51 60.20449 101.17505 36924 ft 496 kts 73°
2026-04-16 05:52 60.22417 101.30797 36931 ft 495 kts 73°
2026-04-16 05:52 60.24375 101.44118 37159 ft 496 kts 73°
2026-04-16 05:52 60.25339 101.50698 37309 ft 496 kts 73°
2026-04-16 05:53 60.26313 101.57363 37462 ft 496 kts 73°
2026-04-16 05:53 60.27251 101.64058 37603 ft 496 kts 75°
2026-04-16 05:53 60.28175 101.70768 37728 ft 496 kts 73°
2026-04-16 05:53 60.29161 101.77426 37881 ft 496 kts 73°
2026-04-16 05:54 60.30158 101.84108 38011 ft 496 kts 73°
2026-04-16 05:54 60.31141 101.90776 38155 ft 496 kts 73°
2026-04-16 05:54 60.32112 101.97466 38298 ft 496 kts 73°
2026-04-16 05:54 60.33074 102.04161 38424 ft 496 kts 73°
2026-04-16 05:55 60.34029 102.10860 38569 ft 496 kts 74°
2026-04-16 05:55 60.34979 102.17563 38677 ft 496 kts 74°
2026-04-16 05:55 60.35924 102.24254 38795 ft 496 kts 74°
2026-04-16 05:56 60.38069 102.37404 38946 ft 496 kts 69°
2026-04-16 05:56 60.40464 102.50473 38946 ft 494 kts 69°
2026-04-16 05:57 60.42825 102.63536 38957 ft 494 kts 70°
2026-04-16 05:57 60.45177 102.76655 38953 ft 495 kts 70°
2026-04-16 05:58 60.47518 102.89799 38955 ft 495 kts 70°
2026-04-16 05:58 60.49828 103.02857 38957 ft 494 kts 70°
2026-04-16 05:59 60.52141 103.15995 38962 ft 494 kts 70°
2026-04-16 05:59 60.54443 103.29150 38963 ft 494 kts 70°
2026-04-16 06:00 60.56733 103.42333 38968 ft 494 kts 70°
2026-04-16 06:00 60.59010 103.55541 38971 ft 495 kts 70°
2026-04-16 06:01 60.61273 103.68759 38976 ft 495 kts 71°
2026-04-16 06:01 60.63525 103.82012 38973 ft 495 kts 71°
2026-04-16 06:02 60.66862 104.01820 38974 ft 494 kts 71°
2026-04-16 06:02 60.69078 104.15093 38984 ft 494 kts 71°
2026-04-16 06:03 60.71279 104.28379 38977 ft 494 kts 71°
2026-04-16 06:03 60.73461 104.41667 38988 ft 493 kts 71°
2026-04-16 06:04 60.75624 104.54996 38981 ft 493 kts 71°
2026-04-16 06:04 60.77779 104.68318 38985 ft 493 kts 71°
2026-04-16 06:05 60.79560 104.79404 38992 ft 493 kts 72°
2026-04-16 06:05 60.81687 104.92754 38983 ft 493 kts 72°
2026-04-16 06:06 60.83800 105.06120 38988 ft 492 kts 72°
2026-04-16 06:06 60.85900 105.19500 38992 ft 492 kts 72°
2026-04-16 06:07 60.87983 105.32876 38984 ft 492 kts 72°
2026-04-16 06:07 60.90055 105.46289 38988 ft 493 kts 72°
2026-04-16 06:08 60.92113 105.59711 38994 ft 492 kts 72°
2026-04-16 06:08 60.94146 105.73070 39013 ft 492 kts 72°
2026-04-16 06:09 60.96176 105.86524 39019 ft 492 kts 73°
2026-04-16 06:09 60.98187 105.99947 39017 ft 492 kts 73°
2026-04-16 06:10 61.00191 106.13438 39020 ft 492 kts 73°
2026-04-16 06:10 61.02179 106.26926 39009 ft 492 kts 73°
2026-04-16 06:11 61.04155 106.40437 39009 ft 492 kts 73°
2026-04-16 06:11 61.06115 106.53959 39014 ft 492 kts 73°
2026-04-16 06:12 61.08062 106.67490 39035 ft 491 kts 73°
2026-04-16 06:12 61.09996 106.81049 39035 ft 491 kts 74°
2026-04-16 06:13 61.11917 106.94623 39038 ft 491 kts 74°
2026-04-16 06:13 61.13820 107.08182 39033 ft 491 kts 74°
2026-04-16 06:14 61.15712 107.21776 39041 ft 491 kts 74°
2026-04-16 06:14 61.17588 107.35376 39027 ft 491 kts 74°
2026-04-16 06:15 61.19440 107.48904 39027 ft 491 kts 75°
2026-04-16 06:15 61.21290 107.62541 39032 ft 491 kts 75°
2026-04-16 06:16 61.23124 107.76182 39041 ft 490 kts 75°
2026-04-16 06:16 61.24946 107.89841 39048 ft 490 kts 75°
2026-04-16 06:17 61.26760 108.03514 39051 ft 490 kts 75°
2026-04-16 06:17 61.28709 108.17003 39050 ft 490 kts 73°
2026-04-16 06:18 61.30763 108.30552 39050 ft 490 kts 73°
2026-04-16 06:18 61.32772 108.44121 39037 ft 490 kts 73°
2026-04-16 06:19 61.34753 108.57700 39038 ft 490 kts 73°
2026-04-16 06:19 61.36717 108.71284 39039 ft 490 kts 73°
2026-04-16 06:20 61.38662 108.84862 39057 ft 490 kts 74°
2026-04-16 06:20 61.40601 108.98498 39055 ft 489 kts 74°
2026-04-16 06:21 61.42528 109.12131 39053 ft 489 kts 74°
2026-04-16 06:21 61.44439 109.25783 39060 ft 489 kts 74°
2026-04-16 06:22 61.46335 109.39445 39059 ft 489 kts 74°
2026-04-16 06:22 61.48217 109.53120 39052 ft 489 kts 74°
2026-04-16 06:23 61.50084 109.66804 39062 ft 489 kts 75°
2026-04-16 06:23 61.51937 109.80505 39056 ft 489 kts 75°
2026-04-16 06:24 61.53764 109.94125 39058 ft 488 kts 75°
2026-04-16 06:24 61.55589 110.07847 39055 ft 488 kts 75°
2026-04-16 06:25 61.57399 110.21576 39054 ft 488 kts 75°
2026-04-16 06:25 61.59195 110.35330 39059 ft 488 kts 75°
2026-04-16 06:26 61.60970 110.49030 39051 ft 488 kts 75°
2026-04-16 06:26 61.62743 110.62844 39060 ft 488 kts 76°
2026-04-16 06:27 61.64486 110.76554 39054 ft 488 kts 76°
2026-04-16 06:27 61.66224 110.90342 39051 ft 488 kts 76°
2026-04-16 06:28 61.67950 111.04155 39056 ft 488 kts 76°
2026-04-16 06:28 61.69661 111.17986 39063 ft 488 kts 76°
2026-04-16 06:29 61.71360 111.31838 39055 ft 488 kts 76°
2026-04-16 06:29 61.73044 111.45698 39056 ft 488 kts 76°
2026-04-16 06:30 61.74717 111.59563 39049 ft 488 kts 76°
2026-04-16 06:30 61.76375 111.73469 39046 ft 488 kts 77°
2026-04-16 06:31 61.78018 111.87368 39039 ft 488 kts 77°
2026-04-16 06:31 61.79648 112.01284 39035 ft 488 kts 77°
2026-04-16 06:32 61.81190 112.15240 39039 ft 487 kts 81°
2026-04-16 06:32 61.82403 112.29337 39037 ft 487 kts 80°
2026-04-16 06:33 61.83638 112.43443 39032 ft 487 kts 80°
2026-04-16 06:33 61.84847 112.57477 39030 ft 487 kts 81°
2026-04-16 06:34 61.86045 112.71615 39028 ft 487 kts 81°
2026-04-16 06:34 61.87227 112.85752 39022 ft 487 kts 81°
2026-04-16 06:35 61.88394 112.99899 39017 ft 487 kts 81°
2026-04-16 06:35 61.88965 113.06888 39008 ft 475 kts 81°
2026-04-16 06:35 61.89519 113.13698 39016 ft 462 kts 81°
2026-04-16 06:36 61.90054 113.20331 39005 ft 450 kts 81°
2026-04-16 06:36 61.90574 113.26807 39009 ft 443 kts 81°
2026-04-16 06:36 61.91602 113.39783 39009 ft 454 kts 82°
2026-04-16 06:37 61.92638 113.53005 39004 ft 452 kts 82°
2026-04-16 06:37 61.93658 113.66178 38997 ft 452 kts 82°
2026-04-16 06:38 61.94666 113.79370 38996 ft 452 kts 82°
2026-04-16 06:38 61.95661 113.92572 38995 ft 452 kts 82°
2026-04-16 06:39 61.96644 114.05788 38991 ft 452 kts 82°
2026-04-16 06:39 61.97613 114.19000 38985 ft 452 kts 82°
2026-04-16 06:40 61.98571 114.32199 38990 ft 452 kts 83°
2026-04-16 06:40 61.99510 114.45421 38988 ft 452 kts 83°
2026-04-16 06:41 62.00432 114.58562 38993 ft 452 kts 83°
2026-04-16 06:41 62.01347 114.71787 38990 ft 452 kts 83°
2026-04-16 06:42 62.02250 114.85023 38987 ft 452 kts 83°
2026-04-16 06:42 62.03141 114.98286 38989 ft 452 kts 83°
2026-04-16 06:43 62.04019 115.11536 38989 ft 452 kts 83°
2026-04-16 06:43 62.04885 115.24812 38988 ft 452 kts 84°
2026-04-16 06:44 62.05737 115.38110 38991 ft 452 kts 84°
2026-04-16 06:44 62.06575 115.51395 38996 ft 452 kts 84°
2026-04-16 06:45 62.07402 115.64682 38996 ft 452 kts 84°
2026-04-16 06:45 62.08217 115.77906 39003 ft 452 kts 84°
2026-04-16 06:46 62.09026 115.91235 39003 ft 452 kts 84°
2026-04-16 06:46 62.09819 116.04538 39007 ft 452 kts 84°
2026-04-16 06:47 62.10600 116.17859 39010 ft 452 kts 85°
2026-04-16 06:47 62.11369 116.31197 39007 ft 452 kts 85°
2026-04-16 06:48 62.12124 116.44532 39016 ft 452 kts 85°
2026-04-16 06:48 62.12866 116.57868 39012 ft 452 kts 85°
2026-04-16 06:49 62.13592 116.71138 39019 ft 452 kts 85°
2026-04-16 06:49 62.14304 116.84488 39017 ft 452 kts 85°
2026-04-16 06:50 62.15004 116.97842 39021 ft 452 kts 85°
2026-04-16 06:50 62.15692 117.11210 39017 ft 452 kts 86°
2026-04-16 06:51 62.16366 117.24584 39013 ft 452 kts 86°
2026-04-16 06:51 62.16914 117.35708 39014 ft 452 kts 86°
2026-04-16 06:52 62.17561 117.49091 39004 ft 452 kts 86°
2026-04-16 06:52 62.18196 117.62470 39002 ft 452 kts 86°
2026-04-16 06:53 62.18758 117.75870 38997 ft 452 kts 88°
2026-04-16 06:53 62.19166 117.89297 39006 ft 452 kts 89°
2026-04-16 06:54 62.19577 118.02736 39001 ft 452 kts 89°
2026-04-16 06:54 62.19991 118.16166 38997 ft 452 kts 89°
2026-04-16 06:55 62.20394 118.29611 38991 ft 452 kts 89°
2026-04-16 06:55 62.20784 118.43053 38994 ft 452 kts 89°
2026-04-16 06:56 62.21159 118.56411 38988 ft 452 kts 89°
2026-04-16 06:56 62.21523 118.69866 38982 ft 452 kts 89°
2026-04-16 06:57 62.21874 118.83331 38987 ft 452 kts 89°
2026-04-16 06:57 62.22214 118.96826 38982 ft 452 kts 90°
2026-04-16 06:58 62.22540 119.10311 38981 ft 452 kts 90°
2026-04-16 06:58 62.22854 119.23783 38981 ft 453 kts 90°
2026-04-16 06:59 62.23172 119.37274 38989 ft 453 kts 90°
2026-04-16 06:59 62.23490 119.50704 38983 ft 453 kts 90°
2026-04-16 07:00 62.23793 119.64234 38980 ft 453 kts 90°
2026-04-16 07:01 62.24215 119.84405 38990 ft 453 kts 90°
2026-04-16 07:01 62.24479 119.97904 38989 ft 453 kts 90°
2026-04-16 07:02 62.24732 120.11426 38990 ft 453 kts 90°
2026-04-16 07:02 62.24971 120.24923 38990 ft 453 kts 91°
2026-04-16 07:03 62.25197 120.38434 38994 ft 453 kts 91°
2026-04-16 07:03 62.25410 120.51933 38992 ft 453 kts 91°
2026-04-16 07:04 62.25607 120.65426 38995 ft 452 kts 91°
2026-04-16 07:04 62.25794 120.78921 38989 ft 452 kts 91°
2026-04-16 07:05 62.25967 120.92397 38988 ft 452 kts 91°
2026-04-16 07:05 62.26129 121.05878 38987 ft 451 kts 92°
2026-04-16 07:06 62.26273 121.19255 38993 ft 451 kts 92°
2026-04-16 07:06 62.26407 121.32729 38987 ft 451 kts 92°
2026-04-16 07:07 62.26527 121.46200 38988 ft 451 kts 92°
2026-04-16 07:07 62.26634 121.59676 38990 ft 451 kts 92°
2026-04-16 07:08 62.26728 121.73164 38990 ft 451 kts 92°
2026-04-16 07:08 62.26809 121.86648 38991 ft 451 kts 92°
2026-04-16 07:09 62.26878 122.00137 38993 ft 451 kts 92°
2026-04-16 07:09 62.26933 122.13521 38992 ft 451 kts 93°
2026-04-16 07:10 62.26975 122.27018 38988 ft 452 kts 93°
2026-04-16 07:10 62.27004 122.40505 38994 ft 452 kts 93°
2026-04-16 07:11 62.27020 122.53993 39001 ft 452 kts 93°
2026-04-16 07:11 62.27023 122.67498 39005 ft 452 kts 93°
2026-04-16 07:12 62.27013 122.81021 39004 ft 453 kts 94°
2026-04-16 07:12 62.26990 122.94553 39006 ft 453 kts 94°
2026-04-16 07:13 62.26954 123.08076 39002 ft 453 kts 94°
2026-04-16 07:13 62.26904 123.21617 39009 ft 453 kts 94°
2026-04-16 07:14 62.26841 123.35134 39006 ft 453 kts 94°
2026-04-16 07:14 62.26765 123.48667 39003 ft 453 kts 94°
2026-04-16 07:15 62.26677 123.62192 39005 ft 453 kts 94°
2026-04-16 07:15 62.26583 123.75627 39003 ft 452 kts 94°
2026-04-16 07:16 62.26384 123.89122 38997 ft 452 kts 94°
2026-04-16 07:16 62.26309 124.02605 38995 ft 452 kts 94°
2026-04-16 07:17 62.26198 124.16083 38995 ft 451 kts 95°
2026-04-16 07:17 62.26051 124.29540 38995 ft 451 kts 95°
2026-04-16 07:18 62.25886 124.42994 38996 ft 451 kts 95°
2026-04-16 07:18 62.25711 124.56434 38994 ft 451 kts 95°
2026-04-16 07:19 62.25522 124.69887 38991 ft 450 kts 95°
2026-04-16 07:19 62.25320 124.83318 38994 ft 450 kts 95°
2026-04-16 07:20 62.25105 124.96741 38995 ft 450 kts 95°
2026-04-16 07:20 62.24878 125.10072 38994 ft 450 kts 95°
2026-04-16 07:21 62.24638 125.23500 38997 ft 450 kts 96°
2026-04-16 07:21 62.24385 125.36902 38997 ft 450 kts 96°
2026-04-16 07:22 62.24118 125.50312 38999 ft 450 kts 96°
2026-04-16 07:22 62.23839 125.63717 38998 ft 450 kts 96°
2026-04-16 07:23 62.23546 125.77107 39000 ft 450 kts 96°
2026-04-16 07:23 62.23242 125.90507 38906 ft 447 kts 96°
2026-04-16 07:23 62.23085 125.97174 38502 ft 449 kts 96°
2026-04-16 07:24 62.22923 126.03875 37865 ft 452 kts 96°
2026-04-16 07:24 62.22757 126.10639 37214 ft 455 kts 97°
2026-04-16 07:24 62.22589 126.17340 36500 ft 458 kts 97°
2026-04-16 07:24 62.22415 126.24191 35760 ft 463 kts 97°
2026-04-16 07:25 62.22236 126.31122 35034 ft 466 kts 97°
2026-04-16 07:25 62.22052 126.38091 34286 ft 471 kts 97°
2026-04-16 07:25 62.21862 126.45125 33371 ft 474 kts 97°
2026-04-16 07:25 62.21669 126.52196 32377 ft 475 kts 98°
2026-04-16 07:26 62.21472 126.59280 31310 ft 477 kts 98°
2026-04-16 07:26 62.21271 126.66373 30123 ft 478 kts 99°
2026-04-16 07:26 62.21064 126.73494 28871 ft 477 kts 99°
2026-04-16 07:26 62.20855 126.80556 27942 ft 472 kts 98°
2026-04-16 07:27 62.20648 126.87522 27173 ft 466 kts 98°
2026-04-16 07:27 62.20456 126.94405 26449 ft 461 kts 97°
2026-04-16 07:27 62.20360 127.01261 25803 ft 456 kts 96°
2026-04-16 07:27 62.20308 127.08004 25220 ft 449 kts 95°
2026-04-16 07:28 62.20256 127.14567 24646 ft 443 kts 95°
2026-04-16 07:28 62.20191 127.21118 24077 ft 436 kts 96°
2026-04-16 07:28 62.20116 127.27540 23495 ft 425 kts 96°
2026-04-16 07:28 62.20036 127.33764 22897 ft 413 kts 96°
2026-04-16 07:29 62.19951 127.39869 22369 ft 406 kts 96°
2026-04-16 07:29 62.19863 127.45869 21826 ft 399 kts 96°
2026-04-16 07:29 62.19774 127.51762 21295 ft 392 kts 96°
2026-04-16 07:29 62.19684 127.57550 20782 ft 386 kts 96°
2026-04-16 07:30 62.19594 127.63256 20246 ft 380 kts 96°
2026-04-16 07:30 62.19503 127.68866 19736 ft 374 kts 96°
2026-04-16 07:30 62.19411 127.74394 19227 ft 368 kts 96°
2026-04-16 07:30 62.19318 127.79832 18727 ft 363 kts 96°
2026-04-16 07:31 62.19225 127.85194 18220 ft 357 kts 96°
2026-04-16 07:31 62.19131 127.90471 17697 ft 352 kts 96°
2026-04-16 07:31 62.19031 127.95754 17199 ft 374 kts 96°
2026-04-16 07:31 62.18918 128.01453 16661 ft 389 kts 95°
2026-04-16 07:32 62.18805 128.07305 16103 ft 391 kts 95°
2026-04-16 07:32 62.18697 128.13108 15548 ft 388 kts 95°
2026-04-16 07:32 62.18588 128.18813 15000 ft 379 kts 95°
2026-04-16 07:32 62.18479 128.24395 14468 ft 370 kts 95°
2026-04-16 07:33 62.18368 128.29833 13932 ft 362 kts 95°
2026-04-16 07:33 62.18257 128.35154 13403 ft 354 kts 95°
2026-04-16 07:33 62.18144 128.40350 12899 ft 345 kts 95°
2026-04-16 07:33 62.18033 128.45408 12409 ft 336 kts 95°
2026-04-16 07:34 62.17926 128.50278 11936 ft 328 kts 95°
2026-04-16 07:34 62.17818 128.55094 11479 ft 320 kts 95°
2026-04-16 07:34 62.17709 128.59855 11015 ft 328 kts 95°
2026-04-16 07:34 62.17586 128.64945 10523 ft 353 kts 94°
2026-04-16 07:35 62.17460 128.70176 10412 ft 347 kts 94°
2026-04-16 07:35 62.17339 128.75239 10283 ft 334 kts 94°
2026-04-16 07:35 62.17156 128.80063 10118 ft 316 kts 101°
2026-04-16 07:35 62.16479 128.84378 9961 ft 297 kts 118°
2026-04-16 07:36 62.15356 128.87917 9706 ft 281 kts 129°
2026-04-16 07:36 62.14145 128.91120 9353 ft 271 kts 129°
2026-04-16 07:36 62.12992 128.94207 9010 ft 261 kts 128°
2026-04-16 07:36 62.11891 128.97194 8690 ft 251 kts 128°
2026-04-16 07:37 62.10837 129.00072 8386 ft 243 kts 127°
2026-04-16 07:37 62.10119 129.02043 8200 ft 265 kts 127°
2026-04-16 07:37 62.08543 129.06355 7964 ft 280 kts 127°
2026-04-16 07:37 62.07353 129.09591 7886 ft 272 kts 127°
2026-04-16 07:38 62.06196 129.12730 7486 ft 268 kts 127°
2026-04-16 07:38 62.05430 129.14797 7128 ft 266 kts 127°
2026-04-16 07:38 62.04286 129.17889 6538 ft 265 kts 127°
2026-04-16 07:38 62.03159 129.20959 5979 ft 262 kts 126°
2026-04-16 07:39 62.01717 129.24885 5570 ft 245 kts 126°
2026-04-16 07:39 62.01012 129.26794 5348 ft 238 kts 126°
2026-04-16 07:39 62.00007 129.29505 5042 ft 231 kts 126°
2026-04-16 07:39 61.98948 129.32368 4733 ft 260 kts 127°
2026-04-16 07:40 61.97818 129.35429 4532 ft 267 kts 126°
2026-04-16 07:40 61.96721 129.38521 4414 ft 257 kts 125°
2026-04-16 07:40 61.95657 129.41544 3922 ft 254 kts 124°
2026-04-16 07:40 61.94606 129.44540 3302 ft 252 kts 124°
2026-04-16 07:41 61.93789 129.47698 2882 ft 241 kts 103°
2026-04-16 07:41 61.93726 129.51232 2502 ft 239 kts 77°
2026-04-16 07:41 61.94437 129.54297 2107 ft 230 kts 49°
2026-04-16 07:41 61.95676 129.56356 1728 ft 224 kts 33°
2026-04-16 07:42 61.96982 129.58084 1504 ft 212 kts 30°
2026-04-16 07:42 61.98178 129.59554 1725 ft 189 kts 29°
2026-04-16 07:42 61.99248 129.60916 1700 ft 169 kts 33°
2026-04-16 07:42 62.00135 129.62328 1605 ft 151 kts 39°
2026-04-16 07:43 62.00922 129.63795 1536 ft 152 kts 41°
2026-04-16 07:43 62.01703 129.65255 1440 ft 150 kts 39°
2026-04-16 07:43 62.02530 129.66607 1390 ft 151 kts 36°
2026-04-16 07:43 62.03373 129.67954 1319 ft 151 kts 37°
2026-04-16 07:44 62.04186 129.69299 1210 ft 140 kts 35°
2026-04-16 07:44 62.04961 129.70518 1031 ft 140 kts 33°
2026-04-16 07:44 62.05746 129.71757 909 ft 140 kts 34°
2026-04-16 07:44 62.06520 129.73012 794 ft 139 kts 35°
2026-04-16 07:45 62.07306 129.74274 641 ft 142 kts 34°
2026-04-16 07:45 62.08097 129.75496 400 ft 138 kts 34°
2026-04-16 07:45 62.08837 129.76708 337 ft 127 kts 36°
2026-04-16 07:45 62.09397 129.77601 330 ft 69 kts 36°
2026-04-16 07:46 62.09761 129.78170 326 ft 61 kts 37°
2026-04-16 07:46 62.09947 129.78393 329 ft 5 kts 330°
2026-04-16 07:46 62.10043 129.78164 327 ft 32 kts 309°
2026-04-16 07:46 62.10179 129.77783 328 ft 31 kts 294°
2026-04-16 07:47 62.10203 129.77393 331 ft 22 kts 259°
2026-04-16 07:47 62.10124 129.77126 328 ft 21 kts 237°
2026-04-16 07:47 62.10018 129.76907 328 ft 21 kts 214°
2026-04-16 07:47 62.09881 129.76703 330 ft 25 kts 215°
2026-04-16 07:48 62.09739 129.76500 329 ft 11 kts 213°
2026-04-16 07:48 62.09736 129.76496 329 ft 0 kts 213°